Home > Weather > U.S.A. > San Jose > Past weeks

Flag for U.S.A. Weather past 2 weeks in San Jose, California, U.S.A.

49 °F

Passing clouds.

Feels Like: 49 °F
Forecast: 38 / 59 °F
Wind: No wind

Location: San Jose International Airport

Current Time: Dec 1, 2015 at 10:44:59 AM

Latest Report: Dec 1, 2015 at 9:53 AM

Visibility: 10 mi

Pressure: 30.26 "Hg

Humidity: 55%

Dew point: 33 °F

Location of San JoseLocation

Historic Weather in San Jose — Graph


San Jose temperature yesterday

Maximum temperature yesterday: 53 °F (at 1:53 PM)
Minimum temperature yesterday: 36 °F (at 4:53 AM)
Average temperature yesterday: 45 °F

Past Weeks' High & Low Weather Summary

High71 °F (Nov 20, 12:53 PM)100% (Nov 19, 3:53 AM)30.36 "Hg (Nov 19, 3:53 AM)
Low31 °F (Nov 28, 5:53 AM)27% (Nov 27, 5:53 PM)29.89 "Hg (Nov 23, 1:53 AM)
Average51 °F69%30.10 "Hg
* Reported Nov 16 9:53 AM — Dec 1 9:53 AM, San Jose, Weather by CustomWeather, © 2015

Note: Actual official high and low records may vary slightly from our data, if they occured in-between our weather recording intervals... More about our weather records


San Jose weather history for previous 24 hours

Time TempWeatherWind HumidityBarometerVisibility
9:53 AM
Tue, Dec 1
49 °FPassing clouds.No wind55%30.26 "Hg10 mi
8:53 AM45 °FScattered clouds.No wind65%30.24 "Hg10 mi
7:53 AM41 °FScattered clouds.No wind76%30.24 "Hg10 mi
6:53 AM40 °FPassing clouds.5 mph77%30.23 "Hg10 mi
5:53 AM39 °FPassing clouds.No wind79%30.23 "Hg10 mi
4:53 AM39 °FClear.6 mph82%30.22 "HgN/A
3:53 AM40 °FClear.No wind83%30.21 "HgN/A
2:53 AM42 °FClear.No wind79%30.22 "HgN/A
1:53 AM44 °FPassing clouds.3 mph76%30.21 "HgN/A
12:53 AM45 °FOvercast.5 mph71%30.22 "HgN/A
11:53 PM
Mon, Nov 30
47 °FPassing clouds.No wind66%30.22 "Hg10 mi
10:53 PM48 °FPassing clouds.3 mph66%30.22 "Hg10 mi
9:53 PM48 °FPassing clouds.3 mph63%30.22 "Hg10 mi
8:53 PM49 °FPassing clouds.No wind61%30.20 "Hg10 mi
7:53 PM49 °FPassing clouds.No wind61%30.20 "Hg10 mi
6:53 PM49 °FPassing clouds.6 mph59%30.19 "Hg10 mi
5:53 PM50 °FPassing clouds.3 mph59%30.17 "Hg10 mi
4:53 PM52 °FPassing clouds.3 mph55%30.17 "Hg10 mi
3:53 PM53 °FPartly sunny.6 mph52%30.16 "Hg10 mi
2:53 PM53 °FBroken clouds.5 mph51%30.16 "Hg10 mi
1:53 PM53 °FMostly cloudy.6 mph52%30.16 "Hg10 mi
12:53 PM51 °FMostly cloudy.3 mph50%30.18 "Hg10 mi
11:53 AM50 °FMostly cloudy.6 mph57%30.19 "Hg10 mi
10:53 AM48 °FLight rain. Broken clouds.No wind56%30.20 "Hg10 mi
Weather by CustomWeather, © 2015

See weather overviewHow to use our weather pages